Location: Unspecified
(0.0000°N, 0.0000°E)
Time: 07:47:51
(UTC+00:00)

Vanguard 2 Rocket - Pass Details

Date: 05 October 2023
Orbit: 552 x 3312 km, 32.9° (Epoch: 06 December)

Event Time Altitude Azimuth Distance (km) Brightness Sun altitude
Rises 04:21:24 0° 222° (SW) 3,036 - -21.7°
Reaches altitude 10° 04:23:27 10° 215° (SW) 2,288 - -21.2°
Exits shadow 04:24:13 15° 211° (SSW) 2,027 8.4 -21.0°
Maximum altitude 04:28:34 49° 140° (SE) 1,300 7.9 -19.9°
Drops below altitude 10° 04:37:04 10° 68° (ENE) 3,774 11.0 -17.8°
Sets 04:41:21 0° 63° (ENE) 5,243 11.8 -16.8°
